RESOURCESAT-2A (41877 NORAD) Tracking and Keplerian Element Data

This shows tracking and keplerian element data for the satellite.

Feedback or suggestion? Click here.




ElementValue
Catalog41877
NameRESOURCESAT-2A
Epoch Orbit8311
Epoch Day196.13641061
Epoch Year2018
RAAN270.624
Inclination98.6702
Eccentricity6.11E-05
Argument of Perigee104.8581
Mean Anonmoly255.2665
Mean Motion14.21654432
Decay Rate-2.3E-07
L11 41877U 16074A 18196.13641061 -.00000023 00000-0 92522-5 0 9993
L22 41877 98.6702 270.6240 0000611 104.8581 255.2665 14.21654432 83113

Live tracking and technical data element details for RESOURCESAT-2A (NORAD 41877). RESOURCESAT-2A can be tracked NOW for your location showing map with azimuth and elevation plus other details from your city location.

Track the satellite on the map from your city or location and see movement details for azimuth, elevation, latitude, longitude, range, height, and movement on the map or in text.







IsCatalogInMostPopularTable: catalog: 41877, numindb: 77
Update: records affected: 1



GetName: 41877 RESOURCESAT-2A

Hit Count: updated at: Sun, 15 Jul 2018 23:10:17 GMT